Starlink 31796

operational
NORAD ID: 59646 Int'l Des: 2024-082 Owner: SPXS Country: US Constellation: starlink
LEOCIRCULAR

About Starlink 31796

Description loading...

Live Position

Loading 3D Globe...

Upcoming Passes

Altitude History

Altitude vs Time

uPlot chart will show altitude changes over time

Two-Line Element Set

1 59646U 24082R 25302.98979678 -.00006542 00000-0 -22820-3 0 9997
2 59646 43.0022 157.8867 0000917 287.9679 72.1073 15.27613043 84981
Epoch: Oct 29, 2025 • Age: 44 hours

Current Status

Altitude 486.1 km
Velocity 7.63 km/s
Sub-Earth Point 40.92°N, 125.51°W
Launch Date May 3, 2024
Age 1.4 years
Type internet

Technical Details

Classification Payload
Mass 730.00 kg
Dry Mass 700.00 kg
Total Mass 730.00 kg
Length 0.30 m
Diameter 4.10 m
Span 29.00 m
Shape Box + pan
Manufacturer SPXS
Bus Type Starlink V2M
Phase Status In Orbit
Owner/State SPXS/US

Large Constellations

Loading constellations...